Location: Unspecified
(0.0000°N, 0.0000°E)
Time: 20:26:19
(UTC+01:00)

Vanguard 1 Rocket - All Passes

Search period start: 19 January 2018 00:00
Search period end: 29 January 2018 00:00
Orbit: 656 x 4222 km, 34.3° (Epoch: 18 January)

Date Brightness Start Highest point End Pass type
(mag) Time Alt. Az. Time Alt. Az. Time Alt. Az.
19 Jan - 01:07:51 10° SSW 01:29:51 34° SSE 01:49:29 10° E visible
19 Jan - 03:39:28 10° SW 04:05:35 72° SE 04:21:32 10° ENE visible
19 Jan - 06:15:51 10° WSW 06:35:35 45° NW 06:46:28 10° NNE visible
19 Jan - 16:24:09 10° NW 16:29:30 76° NE 16:39:12 10° ESE daylight
19 Jan - 18:50:02 10° WSW 18:57:19 29° SSW 19:09:45 10° SSE daylight
19 Jan - 21:21:54 10° SW 21:31:43 18° S 21:44:59 10° SE visible
19 Jan - 23:54:05 10° SSW 00:12:14 26° SSE 00:31:37 10° ESE visible
20 Jan - 02:24:38 10° SW 02:50:11 54° SSE 03:08:48 10° ENE visible
20 Jan - 04:58:16 10° WSW 05:22:39 70° NW 05:36:11 10° NE visible
20 Jan - 07:40:32 10° W 07:50:59 19° NW 07:58:08 10° N daylight
20 Jan - 15:14:33 10° NNW 15:18:52 31° NE 15:25:07 10° ESE daylight
20 Jan - 17:38:24 10° W 17:44:34 41° SSW 17:55:43 10° SE daylight
20 Jan - 20:08:01 10° SW 20:15:52 18° S 20:27:11 10° SSE visible
20 Jan - 22:40:39 10° SSW 22:54:16 20° SSE 23:10:58 10° SE visible
21 Jan - 01:10:39 10° SW 01:33:48 40° SSE 01:54:17 10° E visible
21 Jan - 03:42:07 10° SW 04:08:37 85° SE 04:24:58 10° NE visible
21 Jan - 06:20:01 10° WSW 06:38:27 36° NW 06:49:15 10° NNE visible
21 Jan - 14:07:06 10° NNE 14:08:11 11° NE 14:09:18 10° NE daylight
21 Jan - 16:27:35 10° WNW 16:32:52 71° SW 16:42:15 10° SE daylight
21 Jan - 18:54:53 10° WSW 19:01:32 22° SSW 19:11:49 10° SSE daylight
21 Jan - 21:27:16 10° SSW 21:36:49 17° S 21:49:18 10° SE visible
21 Jan - 23:57:20 10° SSW 00:16:42 30° SSE 00:37:15 10° E visible
22 Jan - 02:27:12 10° SW 02:53:27 64° SE 03:12:36 10° ENE visible
22 Jan - 05:01:35 10° WSW 05:25:25 58° NW 05:39:11 10° NE visible
22 Jan - 07:46:57 10° WNW 07:54:27 15° NW 08:00:09 10° N daylight
22 Jan - 15:17:29 10° NW 15:22:02 52° NE 15:28:56 10° ESE daylight
22 Jan - 17:42:41 10° W 17:48:28 29° SSW 17:58:00 10° SSE daylight
22 Jan - 20:13:47 10° SW 20:20:38 15° S 20:29:48 10° SSE visible
22 Jan - 22:44:34 10° SSW 22:59:13 22° SSE 23:17:06 10° ESE visible
23 Jan - 01:13:19 10° SW 01:37:24 48° SSE 01:58:40 10° ENE visible
23 Jan - 03:44:57 10° SW 04:11:28 82° NW 04:28:11 10° NE visible
23 Jan - 06:24:45 10° W 06:41:29 29° NW 06:51:56 10° NNE visible
23 Jan - 14:08:17 10° N 14:11:29 19° NE 14:15:11 10° E daylight
23 Jan - 16:31:21 10° WNW 16:36:26 45° SSW 16:45:00 10° SE daylight
23 Jan - 19:00:20 10° SW 19:05:56 16° S 19:13:43 10° SSE daylight
23 Jan - 21:32:06 10° SSW 21:41:56 16° SSE 21:54:36 10° SE visible
24 Jan - 00:00:17 10° SSW 00:20:46 35° SSE 00:42:27 10° E visible
24 Jan - 02:29:50 10° SW 02:56:28 76° SE 03:16:08 10° ENE visible
24 Jan - 05:05:18 10° WSW 05:28:13 47° NW 05:42:04 10° NNE visible
24 Jan - 07:54:57 10° NW 07:58:15 11° NNW 08:01:09 10° NNW daylight
24 Jan - 15:20:43 10° NW 15:25:19 88° NE 15:32:20 10° SE daylight
24 Jan - 17:47:28 10° WSW 17:52:32 20° SSW 18:00:00 10° SSE daylight
24 Jan - 20:19:41 10° SSW 20:25:34 13° S 20:32:57 10° SSE visible
24 Jan - 22:47:57 10° SSW 23:03:48 25° SSE 23:23:10 10° ESE visible
25 Jan - 01:15:57 10° SW 01:40:40 57° SE 02:02:40 10° ENE visible
25 Jan - 03:48:03 10° WSW 04:14:13 69° NW 04:31:14 10° NE visible
25 Jan - 06:30:09 10° W 06:44:46 23° NW 06:54:31 10° N visible
25 Jan - 14:10:47 10° NNW 14:14:45 32° NE 14:19:33 10° ESE daylight
25 Jan - 16:35:29 10° W 16:40:11 29° SSW 16:47:26 10° SSE daylight
25 Jan - 19:06:39 10° SSW 19:10:30 12° S 19:15:14 10° SSE daylight
25 Jan - 21:36:13 10° SSW 21:46:54 18° SSE 22:00:44 10° SE visible
26 Jan - 00:03:05 10° SSW 00:24:25 42° SSE 00:47:11 10° E visible
26 Jan - 02:32:37 10° SW 02:59:19 88° SE 03:19:25 10° NE visible
26 Jan - 05:09:29 10° W 05:31:08 39° NW 05:44:51 10° NNE visible
26 Jan - 13:02:12 10° N 13:03:52 12° NNE 13:05:34 10° NE daylight
26 Jan - 15:24:17 10° WNW 15:28:45 54° SSW 15:35:22 10° SE daylight
26 Jan - 17:53:05 10° SW 17:56:46 14° SSW 18:01:29 10° SSE daylight
26 Jan - 20:25:07 10° SSW 20:30:33 12° S 20:37:09 10° SSE visible
26 Jan - 22:51:00 10° SSW 23:07:59 30° SSE 23:28:53 10° E visible
27 Jan - 01:18:38 10° SW 01:43:41 67° SE 02:06:20 10° ENE visible
27 Jan - 03:51:27 10° WSW 04:16:57 58° NW 04:34:09 10° NE visible
27 Jan - 06:36:17 10° WNW 06:48:22 18° NW 06:57:00 10° N visible
27 Jan - 14:13:44 10° NW 14:18:02 59° NE 14:23:20 10° ESE daylight
27 Jan - 16:40:10 10° WSW 16:44:06 18° SSW 16:49:30 10° SSE daylight
27 Jan - 21:39:43 10° SSW 21:51:34 20° SSE 22:07:12 10° ESE visible
28 Jan - 00:05:48 10° SW 00:27:43 50° SE 00:51:28 10° ENE visible
28 Jan - 02:35:36 10° SW 03:02:03 80° NW 03:22:31 10° NE visible
28 Jan - 05:14:14 10° W 05:34:16 32° NW 05:47:35 10° NNE visible
28 Jan - 13:03:49 10° NNW 13:07:22 21° NE 13:10:51 10° E daylight
28 Jan - 15:28:13 10° W 15:32:22 31° SSW 15:38:04 10° SSE daylight
28 Jan - 20:29:30 10° S 20:35:29 13° SSE 20:42:50 10° SE visible
28 Jan - 22:53:53 10° SSW 23:11:44 35° SSE 23:34:06 10° E visible
